Location: Wellington
(41.3000°S, 174.7830°E)
Time: 01:28:03
(UTC+13:00)

ISS - Pass Details

Date: 28 January 2019
Orbit: 403 x 411 km, 51.6° (Epoch: 23 February)

Event Time Altitude Azimuth Distance (km) Brightness Sun altitude
Exits shadow 05:29:04 - 344° (NNW) 1,669 -1.2 -9.2°
Reaches altitude 10° 05:29:36 10° 348° (NNW) 1,483 -1.4 -9.1°
Maximum altitude 05:32:24 25° 46° (NE) 880 -2.0 -8.7°
Drops below altitude 10° 05:35:13 10° 103° (ESE) 1,494 0.4 -8.3°
Sets 05:37:32 0° 116° (ESE) 2,361 2.4 -7.9°
